DLH128 EDDM-EDDF

Flight info

Callsign DLH128
Flight time 0h 34m
Altitude 24000
Route GIVMI1N/26R GIVMI Y101 ERNAS T161 DEBHI DEBHI1B
Aircraft B737/M-SDE2E3FGHIRWXY/LB1

Departure

Time 2026-05-07 17:02
Airport Munich Airport (EDDM)

Arrival

Time 2026-05-07 17:37
Airport Frankfurt Main Airport (EDDF)
Time Latitude Longitude Altitude Speed Heading
2026-05-07 16:17 48.35201 11.79343 1484 ft 0 kts 263°
2026-05-07 16:43 48.35203 11.79358 1468 ft 4 kts 264°
2026-05-07 16:43 48.35205 11.79398 1476 ft 4 kts 267°
2026-05-07 16:44 48.35205 11.79439 1477 ft 4 kts 273°
2026-05-07 16:44 48.35201 11.79478 1475 ft 4 kts 296°
2026-05-07 16:44 48.35189 11.79498 1476 ft 1 kts 354°
2026-05-07 16:44 48.35188 11.79498 1477 ft 1 kts 354°
2026-05-07 16:49 48.35190 11.79498 1476 ft 1 kts 354°
2026-05-07 16:49 48.35218 11.79494 1476 ft 6 kts 354°
2026-05-07 16:49 48.35266 11.79486 1481 ft 8 kts 354°
2026-05-07 16:50 48.35318 11.79479 1479 ft 8 kts 354°
2026-05-07 16:50 48.35378 11.79469 1484 ft 9 kts 354°
2026-05-07 16:50 48.35442 11.79458 1483 ft 10 kts 352°
2026-05-07 16:50 48.35512 11.79445 1484 ft 10 kts 354°
2026-05-07 16:51 48.35585 11.79433 1481 ft 11 kts 353°
2026-05-07 16:51 48.35660 11.79419 1484 ft 5 kts 353°
2026-05-07 16:51 48.35683 11.79415 1478 ft 4 kts 353°
2026-05-07 16:51 48.35714 11.79409 1484 ft 5 kts 353°
2026-05-07 16:52 48.35753 11.79404 1484 ft 6 kts 355°
2026-05-07 16:52 48.35798 11.79396 1473 ft 7 kts 351°
2026-05-07 16:52 48.35847 11.79385 1484 ft 8 kts 353°
2026-05-07 16:52 48.35900 11.79372 1478 ft 6 kts 338°
2026-05-07 16:53 48.35903 11.79369 1480 ft 0 kts 333°
2026-05-07 16:53 48.35904 11.79369 1480 ft 0 kts 333°
2026-05-07 16:53 48.35907 11.79366 1481 ft 1 kts 333°
2026-05-07 16:53 48.35918 11.79358 1482 ft 2 kts 333°
2026-05-07 16:54 48.35936 11.79347 1484 ft 3 kts 343°
2026-05-07 16:54 48.35944 11.79344 1484 ft 0 kts 347°
2026-05-07 16:54 48.35947 11.79343 1484 ft 1 kts 347°
2026-05-07 16:54 48.35957 11.79340 1484 ft 2 kts 349°
2026-05-07 16:55 48.35987 11.79334 1479 ft 6 kts 354°
2026-05-07 16:55 48.36044 11.79329 1480 ft 9 kts
2026-05-07 16:55 48.36094 11.79395 1482 ft 10 kts 63°
2026-05-07 16:55 48.36148 11.79465 1483 ft 11 kts
2026-05-07 16:56 48.36211 11.79523 1482 ft 12 kts 63°
2026-05-07 16:56 48.36227 11.79646 1484 ft 13 kts 83°
2026-05-07 16:56 48.36250 11.79933 1478 ft 15 kts 83°
2026-05-07 16:57 48.36261 11.80092 1484 ft 16 kts 84°
2026-05-07 16:57 48.36274 11.80260 1480 ft 17 kts 83°
2026-05-07 16:57 48.36287 11.80437 1484 ft 17 kts 83°
2026-05-07 16:57 48.36301 11.80618 1484 ft 18 kts 83°
2026-05-07 16:58 48.36316 11.80802 1484 ft 18 kts 83°
2026-05-07 16:58 48.36330 11.80982 1484 ft 17 kts 83°
2026-05-07 16:58 48.36343 11.81155 1479 ft 16 kts 83°
2026-05-07 16:58 48.36356 11.81322 1476 ft 16 kts 83°
2026-05-07 16:59 48.36368 11.81482 1481 ft 15 kts 83°
2026-05-07 16:59 48.36380 11.81635 1470 ft 14 kts 83°
2026-05-07 16:59 48.36392 11.81781 1480 ft 14 kts 84°
2026-05-07 16:59 48.36396 11.81920 1484 ft 12 kts 92°
2026-05-07 17:00 48.36425 11.81995 1481 ft 6 kts 27°
2026-05-07 17:00 48.36466 11.81999 1474 ft 6 kts 356°
2026-05-07 17:00 48.36507 11.81994 1484 ft 6 kts 354°
2026-05-07 17:00 48.36553 11.81986 1483 ft 8 kts 353°
2026-05-07 17:01 48.36612 11.81972 1484 ft 9 kts 346°
2026-05-07 17:01 48.36663 11.81910 1476 ft 10 kts 296°
2026-05-07 17:01 48.36668 11.81850 1481 ft 0 kts 266°
2026-05-07 17:01 48.36647 11.81581 1484 ft 67 kts 262°
2026-05-07 17:02 48.36562 11.80476 1480 ft 142 kts 263°
2026-05-07 17:02 48.36467 11.78711 1734 ft 184 kts 265°
2026-05-07 17:02 48.36321 11.76967 3201 ft 144 kts 265°
2026-05-07 17:02 48.36219 11.75605 3420 ft 135 kts 267°
2026-05-07 17:03 48.36165 11.73928 3300 ft 183 kts 265°
2026-05-07 17:03 48.35999 11.71879 3693 ft 212 kts 263°
2026-05-07 17:03 48.35798 11.69581 4238 ft 228 kts 262°
2026-05-07 17:03 48.35969 11.67172 4859 ft 245 kts 292°
2026-05-07 17:04 48.36869 11.64807 5338 ft 271 kts 301°
2026-05-07 17:04 48.37903 11.62378 6236 ft 280 kts 300°
2026-05-07 17:04 48.38949 11.59908 7303 ft 279 kts 300°
2026-05-07 17:04 48.39633 11.58274 7990 ft 279 kts 299°
2026-05-07 17:05 48.40674 11.55761 8927 ft 284 kts 298°
2026-05-07 17:05 48.41720 11.53205 9900 ft 288 kts 298°
2026-05-07 17:05 48.42771 11.50623 10802 ft 290 kts 298°
2026-05-07 17:05 48.43817 11.48045 11692 ft 293 kts 298°
2026-05-07 17:06 48.44898 11.45431 12571 ft 298 kts 303°
2026-05-07 17:06 48.46467 11.43315 13392 ft 312 kts 328°
2026-05-07 17:06 48.48601 11.42195 13678 ft 341 kts 345°
2026-05-07 17:06 48.51025 11.41515 13902 ft 366 kts 348°
2026-05-07 17:07 48.53615 11.40880 14071 ft 389 kts 348°
2026-05-07 17:07 48.56369 11.40202 14282 ft 409 kts 348°
2026-05-07 17:07 48.59207 11.39474 14801 ft 418 kts 348°
2026-05-07 17:07 48.62044 11.38718 15486 ft 420 kts 347°
2026-05-07 17:08 48.64937 11.37927 16189 ft 423 kts 347°
2026-05-07 17:08 48.67853 11.37122 16828 ft 427 kts 347°
2026-05-07 17:08 48.70710 11.35909 17405 ft 427 kts 332°
2026-05-07 17:08 48.73224 11.33565 18065 ft 425 kts 322°
2026-05-07 17:09 48.75662 11.30985 18650 ft 429 kts 322°
2026-05-07 17:09 48.78101 11.28423 19156 ft 433 kts 322°
2026-05-07 17:09 48.80607 11.25846 19691 ft 436 kts 323°
2026-05-07 17:09 48.83139 11.23272 20215 ft 439 kts 323°
2026-05-07 17:10 48.85586 11.20585 20703 ft 441 kts 317°
2026-05-07 17:10 48.87872 11.17464 21199 ft 443 kts 314°
2026-05-07 17:10 48.90117 11.14226 21691 ft 446 kts 313°
2026-05-07 17:10 48.92383 11.10975 22162 ft 449 kts 314°
2026-05-07 17:11 48.94684 11.07736 22603 ft 453 kts 314°
2026-05-07 17:11 48.97021 11.04480 23060 ft 456 kts 314°
2026-05-07 17:11 48.99367 11.01195 23538 ft 459 kts 314°
2026-05-07 17:11 49.01719 10.97881 23921 ft 462 kts 314°
2026-05-07 17:12 49.04078 10.94549 24054 ft 465 kts 314°
2026-05-07 17:12 49.06469 10.91167 24067 ft 471 kts 314°
2026-05-07 17:12 49.08888 10.87745 24071 ft 474 kts 314°
2026-05-07 17:12 49.11312 10.84325 24067 ft 472 kts 314°
2026-05-07 17:13 49.13717 10.80931 24056 ft 468 kts 314°
2026-05-07 17:13 49.16092 10.77578 24055 ft 463 kts 314°
2026-05-07 17:13 49.18431 10.74265 24068 ft 463 kts 314°
2026-05-07 17:13 49.20779 10.70895 24066 ft 464 kts 313°
2026-05-07 17:14 49.23052 10.67391 24065 ft 465 kts 311°
2026-05-07 17:14 49.25290 10.63808 24061 ft 465 kts 311°
2026-05-07 17:14 49.27522 10.60210 24059 ft 466 kts 311°
2026-05-07 17:14 49.29765 10.56623 24058 ft 466 kts 311°
2026-05-07 17:15 49.32022 10.53045 24053 ft 465 kts 311°
2026-05-07 17:15 49.34274 10.49488 24056 ft 464 kts 311°
2026-05-07 17:15 49.36503 10.45906 24060 ft 461 kts 309°
2026-05-07 17:15 49.38498 10.42078 23436 ft 458 kts 303°
2026-05-07 17:16 49.40286 10.38074 22945 ft 450 kts 301°
2026-05-07 17:16 49.41997 10.34065 22441 ft 447 kts 301°
2026-05-07 17:16 49.43707 10.30088 21982 ft 445 kts 301°
2026-05-07 17:16 49.45437 10.26159 21511 ft 443 kts 302°
2026-05-07 17:17 49.47186 10.22260 21056 ft 441 kts 302°
2026-05-07 17:17 49.48918 10.18438 20614 ft 439 kts 303°
2026-05-07 17:17 49.50664 10.14592 20162 ft 437 kts 303°
2026-05-07 17:17 49.52398 10.10765 19719 ft 435 kts 302°
2026-05-07 17:18 49.54120 10.06954 19284 ft 432 kts 303°
2026-05-07 17:18 49.55829 10.03163 18836 ft 429 kts 303°
2026-05-07 17:18 49.57528 9.99391 18398 ft 427 kts 303°
2026-05-07 17:18 49.59212 9.95646 17906 ft 423 kts 303°
2026-05-07 17:19 49.60882 9.91929 17438 ft 420 kts 303°
2026-05-07 17:19 49.62539 9.88235 16988 ft 416 kts 303°
2026-05-07 17:19 49.64167 9.84600 16546 ft 405 kts 303°
2026-05-07 17:19 49.65731 9.81104 16139 ft 385 kts 303°
2026-05-07 17:20 49.67211 9.77794 15839 ft 365 kts 303°
2026-05-07 17:20 49.68612 9.74655 15596 ft 347 kts 303°
2026-05-07 17:20 49.69964 9.71618 15289 ft 341 kts 303°
2026-05-07 17:20 49.71305 9.68605 14942 ft 340 kts 303°
2026-05-07 17:21 49.72647 9.65585 14609 ft 342 kts 303°
2026-05-07 17:21 49.73985 9.62566 14260 ft 345 kts 303°
2026-05-07 17:21 49.75336 9.59519 14091 ft 341 kts 303°
2026-05-07 17:21 49.76671 9.56507 14057 ft 338 kts 303°
2026-05-07 17:22 49.77997 9.53510 14055 ft 338 kts 303°
2026-05-07 17:22 49.79324 9.50506 13962 ft 340 kts 303°
2026-05-07 17:22 49.80659 9.47480 13423 ft 346 kts 303°
2026-05-07 17:22 49.82008 9.44421 12930 ft 342 kts 303°
2026-05-07 17:23 49.83342 9.41394 12439 ft 338 kts 303°
2026-05-07 17:23 49.84663 9.38393 11941 ft 335 kts 303°
2026-05-07 17:23 49.85956 9.35418 11470 ft 331 kts 300°
2026-05-07 17:23 49.86842 9.32175 10989 ft 325 kts 285°
2026-05-07 17:24 49.87465 9.28843 10520 ft 318 kts 284°
2026-05-07 17:24 49.88058 9.25568 10065 ft 314 kts 284°
2026-05-07 17:24 49.88655 9.22304 9572 ft 314 kts 284°
2026-05-07 17:24 49.89259 9.19052 9083 ft 314 kts 285°
2026-05-07 17:25 49.89863 9.15838 8590 ft 313 kts 285°
2026-05-07 17:25 49.90472 9.12628 8091 ft 306 kts 285°
2026-05-07 17:25 49.91069 9.09483 7604 ft 302 kts 285°
2026-05-07 17:25 49.91660 9.06365 7180 ft 300 kts 285°
2026-05-07 17:26 49.92236 9.03327 7063 ft 283 kts 285°
2026-05-07 17:26 49.92769 9.00514 7041 ft 262 kts 285°
2026-05-07 17:26 49.93263 8.97898 7020 ft 243 kts 285°
2026-05-07 17:26 49.93726 8.95444 7044 ft 235 kts 285°
2026-05-07 17:27 49.94370 8.93213 7034 ft 235 kts 308°
2026-05-07 17:27 49.95685 8.91700 6982 ft 243 kts 336°
2026-05-07 17:27 49.97403 8.91262 6533 ft 257 kts 357°
2026-05-07 17:27 49.99175 8.91330 6096 ft 259 kts
2026-05-07 17:28 50.00979 8.91525 5635 ft 261 kts
2026-05-07 17:28 50.02636 8.92694 5133 ft 266 kts 39°
2026-05-07 17:28 50.03760 8.94968 4701 ft 269 kts 64°
2026-05-07 17:28 50.04449 8.97684 4267 ft 270 kts 70°
2026-05-07 17:29 50.05053 9.00400 4023 ft 258 kts 70°
2026-05-07 17:29 50.05618 9.02916 3970 ft 242 kts 70°
2026-05-07 17:29 50.06189 9.05408 4000 ft 242 kts 69°
2026-05-07 17:29 50.06914 9.07706 3968 ft 240 kts 44°
2026-05-07 17:30 50.08337 9.08928 3999 ft 232 kts
2026-05-07 17:30 50.09858 9.08509 4002 ft 226 kts 328°
2026-05-07 17:30 50.11118 9.07097 3988 ft 223 kts 311°
2026-05-07 17:30 50.11732 9.04954 4014 ft 219 kts 274°
2026-05-07 17:31 50.11795 9.02550 3989 ft 225 kts 273°
2026-05-07 17:31 50.11909 9.00110 3990 ft 227 kts 275°
2026-05-07 17:31 50.12065 8.97652 3997 ft 228 kts 276°
2026-05-07 17:31 50.12244 8.95186 3993 ft 229 kts 276°
2026-05-07 17:32 50.12166 8.92761 3972 ft 224 kts 251°
2026-05-07 17:32 50.11601 8.90522 3986 ft 219 kts 250°
2026-05-07 17:32 50.11079 8.88384 3957 ft 203 kts 250°
2026-05-07 17:32 50.10762 8.87054 3962 ft 191 kts 251°
2026-05-07 17:33 50.10197 8.84562 3955 ft 182 kts 251°
2026-05-07 17:33 50.09765 8.82694 3771 ft 185 kts 251°
2026-05-07 17:33 50.09322 8.80834 3551 ft 179 kts 251°
2026-05-07 17:33 50.08890 8.79036 3303 ft 176 kts 251°
2026-05-07 17:34 50.08464 8.77267 3048 ft 172 kts 251°
2026-05-07 17:34 50.08045 8.75529 2821 ft 171 kts 251°
2026-05-07 17:34 50.07533 8.73835 2484 ft 177 kts 245°
2026-05-07 17:34 50.06944 8.72154 2149 ft 174 kts 246°
2026-05-07 17:35 50.06463 8.70469 2001 ft 172 kts 252°
2026-05-07 17:35 50.06053 8.68519 2264 ft 203 kts 257°
2026-05-07 17:35 50.05653 8.66317 2107 ft 219 kts 257°
2026-05-07 17:35 50.05227 8.64038 1860 ft 213 kts 253°
2026-05-07 17:36 50.04748 8.61915 1306 ft 205 kts 250°
2026-05-07 17:36 50.04305 8.59928 701 ft 183 kts 250°
2026-05-07 17:36 50.03896 8.58188 368 ft 160 kts 248°
2026-05-07 17:36 50.03556 8.56809 351 ft 107 kts 250°
2026-05-07 17:37 50.03381 8.56020 349 ft 46 kts 252°
2026-05-07 17:37 50.03298 8.55732 344 ft 26 kts 240°
2026-05-07 17:37 50.03156 8.55477 342 ft 34 kts 219°
2026-05-07 17:37 50.03113 8.55419 345 ft 0 kts 221°
2026-05-07 17:38 50.03110 8.55415 345 ft 2 kts 221°
2026-05-07 17:39 50.03086 8.55383 349 ft 9 kts 220°
2026-05-07 17:39 50.03026 8.55310 337 ft 11 kts 215°
2026-05-07 17:39 50.02958 8.55295 348 ft 11 kts 134°
2026-05-07 17:39 50.02953 8.55416 343 ft 11 kts 76°
2026-05-07 17:40 50.02976 8.55532 346 ft 11 kts 71°
2026-05-07 17:40 50.03002 8.55644 351 ft 11 kts 70°
2026-05-07 17:40 50.03028 8.55752 343 ft 11 kts 69°
2026-05-07 17:40 50.03054 8.55857 348 ft 10 kts 69°
2026-05-07 17:41 50.03078 8.55959 345 ft 10 kts 70°
2026-05-07 17:41 50.03102 8.56058 346 ft 10 kts 70°
2026-05-07 17:41 50.03124 8.56155 351 ft 9 kts 70°
2026-05-07 17:41 50.03146 8.56250 350 ft 9 kts 70°
2026-05-07 17:42 50.03168 8.56340 353 ft 9 kts 68°
2026-05-07 17:42 50.03190 8.56428 354 ft 8 kts 68°
2026-05-07 17:42 50.03209 8.56509 352 ft 8 kts 70°
2026-05-07 17:42 50.03226 8.56585 351 ft 7 kts 70°
2026-05-07 17:43 50.03244 8.56659 348 ft 7 kts 70°
2026-05-07 17:43 50.03261 8.56730 354 ft 7 kts 68°
2026-05-07 17:43 50.03266 8.56797 350 ft 6 kts 98°
2026-05-07 17:43 50.03244 8.56847 351 ft 4 kts 150°
2026-05-07 17:44 50.03243 8.56847 351 ft 0 kts 150°
2026-05-07 17:44 50.03238 8.56852 351 ft 3 kts 154°
2026-05-07 17:44 50.03218 8.56864 359 ft 4 kts 159°
2026-05-07 17:45 50.03200 8.56874 354 ft 0 kts 159°
2026-05-07 17:47 50.03199 8.56874 354 ft 1 kts 159°
2026-05-07 17:47 50.03143 8.56907 354 ft 16 kts 159°
2026-05-07 17:47 50.03031 8.56971 354 ft 17 kts 161°
2026-05-07 17:47 50.02923 8.57032 351 ft 16 kts 159°
2026-05-07 17:48 50.02820 8.57095 354 ft 15 kts 152°
2026-05-07 17:48 50.02801 8.57212 359 ft 10 kts 71°
2026-05-07 17:48 50.02799 8.57289 357 ft 7 kts 143°
2026-05-07 17:48 50.02754 8.57317 357 ft 7 kts 160°
2026-05-07 17:49 50.02712 8.57341 353 ft 0 kts 159°